Regional Weather Roundup
Issued by NWS

Home | Current Version | Previous Version | Graphics & Text | Print | Product List | Glossary On
Versions: 1 2 3 4 5 6 7 8 9 10 11 12 13 14 15 16 17 18 19 20 21 22 23 24 25 26 27 28 29 30 31 32 33 34 35 36 37 38 39 40 41 42 43 44 45 46 47 48 49 50
282
ASUS45 KSLC 221610
RWRUT

UTAH REGIONAL WEATHER ROUNDUP
NATIONAL WEATHER SERVICE SALT LAKE CITY UT
1000 AM MDT FRI JUL 22 2016

UTZ001>011-023>025-221700-

NORTHERN UTAH

CITY           SKY/WX    TMP DP  RH WIND       PRES   REMARKS
BRIGHAM CITY     N/A     85  45  24 SE7       30.14S
HILL AFB       MOSUNNY   87  48  26 SE5       30.18R
LOGAN          MOSUNNY   85  48  27 NE3       30.14S
OGDEN          MOSUNNY   88  47  24 CALM      30.14R
PROVO AIRPORT  MOSUNNY   81  54  39 E6        30.19S
SALT LAKE CITY PTSUNNY   88  51  28 SE14      30.11S
VERNAL         SUNNY     75  51  43 VRB3      30.30F
WENDOVER       SUNNY     90  28  11 N13       30.14R
HEBER CITY     SUNNY     75  46  35 CALM      30.27S

$$

UTZ012>022-026-027-221700-

SOUTHERN/CENTRAL UTAH

CITY           SKY/WX    TMP DP  RH WIND       PRES   REMARKS
BLANDING       MOSUNNY   78  52  40 S6        30.44S
BRYCE CANYON   SUNNY     74  47  38 VRB5      30.48S
CEDAR CITY     SUNNY     86  44  23 SW5       30.28S
DELTA          SUNNY     88  41  19 S12       30.20S
MILFORD        SUNNY     88  43  20 S13       30.22S
MOAB/CYNLANDS  SUNNY     85  52  32 E7        30.23R
PRICE          SUNNY     78  47  33 VRB3      30.34R
ST GEORGE      SUNNY     90  46  22 CALM      30.10S
KANAB          SUNNY     86  48  26 CALM      30.29

$$

REGIONAL REPORTS     COLORADO/ARIZONA

CITY           SKY/WX    TMP DP  RH WIND       PRES   REMARKS
CRAIG, CO      SUNNY     76  50  40 NE7       30.38S
GRAND JUNCTION SUNNY     81  53  37 SE12      30.28S
RIFLE          SUNNY     75  54  47 VRB5      30.35F
MONTROSE       CLOUDY    76  54  46 NW3       30.37F
CORTEZ         CLOUDY    74  52  46 CALM      30.38S
PAGE, AZ       SUNNY     86  51  29 W5        30.21S
GRAND CANYON   SUNNY     81  48  31 VRB6      30.41S
KINGMAN        MOSUNNY   95  38  13 CALM      30.13R HX  90
FLAGSTAFF      MOSUNNY   72  53  51 SW9       30.46S

$$

REGIONAL REPORTS    NEVADA/IDAHO/WYOMING

CITY           SKY/WX    TMP DP  RH WIND       PRES   REMARKS
LAS VEGAS, NV  MOSUNNY   98  23   7 S7        29.96S HX  91
ELY            SUNNY     81  32  17 S6        30.32S
ELKO           SUNNY     78  25  14 SW7       30.26R
POCATELLO, ID  SUNNY     82  27  13 SW17G25   30.16R
BURLEY         SUNNY     76  42  29 W12       30.16R
EVANSTON, WY   SUNNY     75  44  33 W7        30.37R
ROCK SPRINGS   SUNNY     77  42  28 SW5       30.36S
KEMMERER         N/A     73  41  31 E3        30.40S

$$




USA.gov is the U.S. government's official web portal to all federal, state and local government web resources and services.